Spokane, WA

7:57 PM PDT on August 22, 2017 (GMT -0700)
Spokane International

Weather History for KGEG - October, 2011

Change the Weather History Date:

Monday, October 31, 2011

  Actual Average Record
Temperature  
Mean Temperature 43 °F 42 °F  
Max Temperature 52 °F 50 °F 67 °F (1988)
Min Temperature 34 °F 34 °F 7 °F (2002)
Degree Days  
Heating Degree Days 22 23  
Month to date heating degree days 516 541  
Since 1 July heating degree days 663 788  
Cooling Degree Days 0 0  
Month to date cooling degree days 0 1  
Year to date cooling degree days 426 450  
Moisture  
Dew Point 28 °F    
Average Humidity 59    
Maximum Humidity 89    
Minimum Humidity 29    
Precipitation  
Precipitation 0.00 in 0.06 in 0.89 in (1933)
Month to date precipitation 0.73 1.18  
Year to date precipitation 12.66 11.96  
Snow  
Snow 0.00 in 0.00 in 1.60 in (1971)
Month to date snowfall 0.0 0.1  
Since 1 July snowfall 0.0 0.1  
Since 1 September snowfall 0.0 0.1  
Snow Depth 0.00 in    
Sea Level Pressure  
Sea Level Pressure 30.14 in    
Wind  
Wind Speed 10 mph (WSW)    
Max Wind Speed 20 mph    
Max Gust Speed 25 mph    
Visibility 10 miles    
Events      
T = Trace of Precipitation, MM = Missing Value Source: NWS Daily Summary

Daily Weather History Graph

Daily Weather History Graph

Search for Another Location

Airport or City:

Trip Planner

Search our weather history database for the weather conditions in past years. The results will help you decide how hot, cold, wet, or windy it might be!

Date:

Astronomy

Oct. 31, 2011 Rise Set
Actual Time 7:32 AM PDT 5:34 PM PDT
Civil Twilight 7:00 AM PDT 6:06 PM PDT
Nautical Twilight 6:23 AM PDT 6:42 PM PDT
Astronomical Twilight 5:48 AM PDT 7:18 PM PDT
Moon 12:52 PM PDT (10/31) 10:07 PM PDT (10/31)
Length of Visible Light 11h 06m
Length of Day
10h 01m
Waxing Crescent, 31% of the Moon is Illuminated
Oct 31
Waxing Crescent
Nov 2
First Quarter
Nov 10
Full
Nov 18
Last Quarter
Nov 24
New

Hourly Weather History & Observations

Time (PDT) Temp. Windchill Dew Point Humidity Pressure Visibility Wind Dir Wind Speed Gust Speed Precip Events Conditions
12:53 AM 48.0 °F - 43.0 °F 83% 29.97 in 10.0 mi SSW 11.5 mph - N/A   Mostly Cloudy
1:53 AM 44.6 °F 38.1 °F 41.0 °F 87% 29.97 in 10.0 mi SSW 13.8 mph - N/A   Scattered Clouds
2:53 AM 43.0 °F 36.0 °F 37.0 °F 80% 29.99 in 10.0 mi SW 13.8 mph - N/A   Partly Cloudy
3:53 AM 43.0 °F 35.4 °F 35.1 °F 74% 30.01 in 10.0 mi WSW 16.1 mph - N/A   Partly Cloudy
4:53 AM 39.9 °F 32.9 °F 32.0 °F 73% 30.04 in 10.0 mi WSW 11.5 mph - N/A   Partly Cloudy
5:53 AM 37.9 °F 29.6 °F 30.0 °F 73% 30.06 in 10.0 mi SW 13.8 mph - N/A   Partly Cloudy
6:53 AM 36.0 °F 32.1 °F 28.9 °F 76% 30.09 in 10.0 mi South 4.6 mph - N/A   Partly Cloudy
7:53 AM 35.1 °F 27.4 °F 27.0 °F 72% 30.12 in 10.0 mi WSW 10.4 mph - N/A   Partly Cloudy
8:53 AM 37.0 °F 28.5 °F 28.0 °F 70% 30.14 in 10.0 mi West 13.8 mph - N/A   Partly Cloudy
9:53 AM 42.1 °F 34.5 °F 28.0 °F 58% 30.16 in 10.0 mi SW 15.0 mph - N/A   Partly Cloudy
10:53 AM 45.0 °F 38.5 °F 27.0 °F 49% 30.18 in 10.0 mi WSW 13.8 mph - N/A   Partly Cloudy
11:53 AM 48.9 °F - 27.0 °F 43% 30.19 in 10.0 mi West 13.8 mph - N/A   Partly Cloudy
12:53 PM 50.0 °F - 28.0 °F 43% 30.18 in 10.0 mi SSW 15.0 mph - N/A   Partly Cloudy
1:53 PM 50.0 °F - 27.0 °F 41% 30.17 in 10.0 mi SW 17.3 mph 24.2 mph N/A   Scattered Clouds
2:53 PM 51.1 °F - 21.0 °F 31% 30.17 in 10.0 mi West 13.8 mph - N/A   Scattered Clouds
3:53 PM 50.0 °F - 19.0 °F 29% 30.17 in 10.0 mi WNW 10.4 mph - N/A   Mostly Cloudy
4:53 PM 48.0 °F - 21.0 °F 34% 30.19 in 10.0 mi West 8.1 mph - N/A   Mostly Cloudy
5:53 PM 44.1 °F 40.1 °F 24.1 °F 45% 30.21 in 10.0 mi SW 6.9 mph - N/A   Scattered Clouds
6:53 PM 42.8 °F 37.5 °F 24.8 °F 49% 30.17 in 10.0 mi SSW 9.2 mph - N/A   Partly Cloudy
7:53 PM 41.0 °F 35.8 °F 27.0 °F 57% 30.23 in 10.0 mi SW 8.1 mph - N/A   Mostly Cloudy
8:53 PM 39.0 °F 34.8 °F 25.0 °F 57% 30.24 in 10.0 mi West 5.8 mph - N/A   Mostly Cloudy
9:53 PM 37.9 °F 35.5 °F 26.1 °F 62% 30.26 in 10.0 mi West 3.5 mph - N/A   Mostly Cloudy
10:53 PM 36.0 °F 32.1 °F 26.1 °F 67% 30.27 in 10.0 mi West 4.6 mph - N/A   Scattered Clouds
11:53 PM 36.0 °F - 25.0 °F 64% 30.28 in 10.0 mi Calm Calm - N/A   Mostly Cloudy